Regional Weather Roundup
Issued by NWS Grand Forks, ND

Home | Current Version | Previous Version | Graphics & Text | Print | Product List | Glossary On
Versions: 1 2 3 4 5 6 7 8 9 10 11 12 13 14 15 16 17 18 19 20 21 22 23 24 25 26 27 28 29 30 31 32 33 34 35 36 37 38 39 40 41 42 43 44 45 46 47 48 49 50
000
ASUS43 KFGF 241410
RWRFGF
PRAIRIE TO PINES  WEATHER ROUNDUP
NATIONAL WEATHER SERVICE EASTERN NORTH DAKOTA/GRAND FORKS ND
900 AM CDT THU JUL 24 2014

 **SATELLITE DATA USED TO AUGMENT SKY COVER AT AUTOMATED STATIONS**
 *****  WEATHER ACROSS EASTERN NORTH DAKOTA  *****

CITY           SKY/WX    TMP DP  RH WIND       PRES   REMARKS
GRAND FORKS    CLOUDY    65  59  81 S7        30.06R
GRAND FRKS AFB PTSUNNY   65  63  94 S7        30.06S
GRAND FRKS NWS   N/A     64 N/A N/A S6          N/A
DEVILS LAKE    CLOUDY    66  57  72 SE12      30.03R
FARGO          MOSUNNY   70  58  65 S10       30.06F
WAHPETON ARPT  MOSUNNY   68  55  64 S10       30.08F
$$

 ***** WEATHER ACROSS CENTRAL AND WESTERN NORTH DAKOTA  *****

CITY           SKY/WX    TMP DP  RH WIND       PRES   REMARKS
BISMARCK       CLOUDY    68  59  73 CALM      30.00R
MINOT          LGT RAIN  63  61  93 E21G28    29.86F
JAMESTOWN      PTSUNNY   67  58  72 SE14      29.99F
MINOT AFB      LGT RAIN  62  62 100 E17       29.88F
GARRISON         N/A     62  61  96 E14G22    29.93F
WILLISTON      CLOUDY    68  60  75 E5        29.85F
DICKINSON      CLOUDY    64  60  87 E16       29.92R
HETTINGER      PTSUNNY   68  61  78 NE10      29.91R
$$

 *****  OTHER AIRPORT OBSERVATIONS IN OUR AREA  *****

CITY           SKY/WX    TMP DP  RH WIND       PRES   REMARKS
WALHALLA         N/A     64  61  88 SE8         N/A
GRAFTON AIRPOR FAIR      64  59  82 SE10      30.04F
VALLEY CITY AR FAIR      66  63  88 SE10G17   30.05S
CANDO          FAIR      66  59  77 S10       30.05R
CAVALIER APRT  FAIR      64  57  77 SE6       30.06S
GWINNER        MOSUNNY   70  61  73 SE10      30.05S
ROLLA          FAIR      63  63 100 S12       30.08R
 ***** THE ABOVE OBSERVATIONS ARE NON NWS ARE NOT QUALITY
       CONTROLLED AND MAY MIS-REPORT RAIN FOR SNOW...
$$

  *****  WEATHER ACROSS NORTHERN MINNESOTA  *****

CITY           SKY/WX    TMP DP  RH WIND       PRES   REMARKS
FLAG ISLAND    MOSUNNY   66  55  68 SE7       30.10S
WARROAD        NOT AVBL
ROSEAU         PTSUNNY   63  57  82 CALM      30.09F
HALLOCK        SUNNY     66  57  72 SE7       30.06S
THF RVR FALLS  MOSUNNY   66  61  82 S8        30.08S
BAUDETTE       SUNNY     65  56  72 S6        30.12F
WASKISH        SUNNY     64  57  77 CALM      30.11F
CROOKSTON      MOSUNNY   66  61  82 S8        30.07F
$$
  *****  WEATHER ACROSS CENTRAL AND WEST MINNESOTA  *****

CITY           SKY/WX    TMP DP  RH WIND       PRES   REMARKS
FOSSTON        MOSUNNY   66  57  72 S8        30.11R
BEMIDJI        SUNNY     65  57  76 S6        30.11F
PARK RAPIDS    CLOUDY    65  56  72 S6        30.13S
ELBOW LAKE     FAIR      67  57  69 SE9       30.11F
WADENA         MOSUNNY   66  57  72 S6        30.13R
DETROIT LAKES  MOSUNNY   68  57  68 S9        30.12F
MOORHEAD       MOSUNNY   70  63  78 S9        30.08F
FERGUS FALLS   MOSUNNY   70  54  56 SE9       30.10S
MORRIS MN      MOSUNNY   66  59  77 SE7       30.09F
STAPLES        MOSUNNY   66  57  72 S3        30.14R
$$
  *****  WEATHER ELSEWHERE ACROSS MINNESOTA  *****

CITY           SKY/WX    TMP DP  RH WIND       PRES   REMARKS
DULUTH         MOSUNNY   67  53  61 VRB5      30.15F
INTRNTL FALLS  MOSUNNY   64  54  69 S5        30.14S
ELY            SUNNY     64  52  63 CALM      30.16S
CLOQUET        SUNNY     64  55  72 SE3       30.15F
WHEATON        SUNNY     64  57  77 SE10      30.09F
BRAINERD       SUNNY     66  59  78 S5        30.14F
HIBBING        SUNNY     64  55  72 SE3       30.15F
ALEXANDRIA     SUNNY     69  55  60 S10       30.14F
SAINT CLOUD    MOSUNNY   68  57  68 S3        30.14S
MINNEAPOLIS    MOSUNNY   70  58  65 S5        30.15R
$$

  *****  WEATHER ACROSS SOUTH DAKOTA  *****

CITY           SKY/WX    TMP DP  RH WIND       PRES   REMARKS
SIOUX FALLS    CLOUDY    66  61  84 S22G39    30.00F
BROOKINGS      NOT AVBL
WATERTOWN      MOSUNNY   70  56  61 SE14      30.06F
HURON          CLOUDY    68  62  81 SE10      29.99F
SISSETON         N/A     68  59  73 S13       30.06F
ABERDEEN       MOSUNNY   68  58  70 SE15      30.00F
MITCHELL       CLOUDY    68  63  84 S16G26    30.01F
PIERRE         PTSUNNY   71  60  68 SE26G32   29.87F
MOBRIDGE       PTSUNNY   71  61  70 SE16G24   29.88S
RAPID CITY     PTSUNNY   70  66  87 SE9       29.85F
$$

  *****  SOME WEATHER IN NEARBY STATES *****

CITY           SKY/WX    TMP DP  RH WIND       PRES   REMARKS
GLASGOW MT     SUNNY     68  60  75 SE18      29.79R
GREAT FALLS MT SUNNY     64  54  69 SW7       29.94R
CHEYENNE WY    PTSUNNY   78  45  30 W13G24    30.16F
SCOTTSBLUFF NE MOSUNNY   73  65  75 SE8       29.99F
OMAHA NE       PTSUNNY   73  58  59 SE12      30.13S
DES MOINES IA  PTSUNNY   73  60  63 SE6       30.15S
DAVENPORT IA   SUNNY     66  53  63 E7        30.18F
CHICAGO IL     MOSUNNY   66  53  63 NE12      30.18S
EAU CLAIRE WI  SUNNY     67  56  67 SE5       30.15F
LA CROSSE WI   SUNNY     69  57  65 SE5       30.16S
$$

  *****  SOME NATIONAL WEATHER *****

CITY           SKY/WX    TMP DP  RH WIND       PRES   REMARKS
LA GUARDIA NY  CLOUDY    74  62  66 N10       29.85S
RALEIGH NC     PTSUNNY   78  70  76 N5        29.93S
ATLANTA GA     PTSUNNY   79  71  76 W7        30.02R
NEW ORLEANS LA MOSUNNY   81  73  76 CALM      30.01R
OKLAHOMA CITY  MOSUNNY   81  67  62 E7        30.10R
ALBUQUERQUE NM MOSUNNY   73  53  49 N6        30.34R
SALT LAKE CITY CLOUDY    80  43  26 NW5       30.02R
LOS ANGELES CA SUNNY     70  62  76 CALM      29.88R
BOISE ID       SUNNY     60  43  53 NW14      30.17R
SEATTLE WA     PTSUNNY   57  52  83 S6        30.11R
$$

*** WEATHER ACROSS MANITOBA...SASKATCHEWAN AND ONTARIO ***
                ***ONTARIO***

CITY           SKY/WX    TMP DP  RH WIND       PRES   REMARKS
GERALDTON      PTSUNNY   64  54  68 W7        30.05F
THUNDER BAY    SUNNY     64  54  68 W6        30.12F
SIOUX LOOKOUT  MOSUNNY   66  54  63 SW5       30.12F
TORONTO        PTSUNNY   66  45  45 N12       30.08F
BIG TROUT LK   SUNNY     63  52  67 W7        29.96F
PICKLE LAKE    MOSUNNY   66  50  55 W9        30.05F
DRYDEN         SUNNY     64  52  63 SW3       30.13F
KENORA         PTSUNNY   64  55  72 SE6       30.13F
$$
                *** MANITOBA***

CITY           SKY/WX    TMP DP  RH WIND       PRES   REMARKS
BRANDON        CLOUDY    61  55  82 SE9       30.04S
DAUPHIN        CLOUDY    64  55  72 E9        29.98F
ISLAND LAKE    MOSUNNY   68  55  64 W6        30.02F
PILOT MOUND      N/A     63  57  82 S10         N/A
THE PAS        MOSUNNY   68  59  73 SE14      29.95F
THOMPSON       SUNNY     66  57  72 W3        29.98F
WINNIPEG       PTSUNNY   66  52  59 S12       30.07F
LYNN LAKE      SUNNY     68  54  60 CALM      29.97F
CHURCHILL      MOSUNNY   61  54  77 E5        29.94S
GILLAM         PTSUNNY   64  57  77 W6        29.93F
$$
                ***SASKATCHEWAN***

CITY           SKY/WX    TMP DP  RH WIND       PRES   REMARKS
ESTEVAN        LGT RAIN  63  61  94 SE13      29.83F
KINDERSLEY     PTSUNNY   63  59  88 SW5       29.75R
LLOYDMINSTER   CLOUDY    66  63  88 SE12      29.74R FOG
PRINCE ALBERT  CLOUDY    61  59  94 E12       29.84F
REGINA         PTSUNNY   64  61  88 E13G20    29.80R
YORKTON        SUNNY     64  59  82 SE17G25   29.90F
N. BATTLEFORD  MOSUNNY   66  64  94 NE10      29.75R
LA RONGE       PTSUNNY   64  57  77 SE7       29.89F
SASKATOON      CLOUDY    66  63  88 E15       29.78S
SWIFT CURRENT  SUNNY     68  59  73 E6        29.80F
$$
NOTE: THESE ARE AUTOMATED STATIONS WITH LIMITED QUALITY CONTROL
      "FAIR" INDICATES FEW OR NO CLOUDS BELOW 12,000 FEET WITH NO
      SIGNIFICANT WEATHER AND/OR OBSTRUCTIONS TO VISIBILITY.
      SKY/WX - SKY CONDITION AND SIGNIFICANT WEATHER.
      TMP - AIR TEMPERATURE.    DP   - DEWPOINT TEMPERATURE.
      RH  - RELATIVE HUMIDITY.  PRES - PRESSURE.
      HX  - HEAT INDEX.         WCI  - WIND CHILL INDEX.
$



USA.gov is the U.S. government's official web portal to all federal, state and local government web resources and services.